OBJECT H (43187 NORAD) Tracking and Keplerian Element Data

This shows tracking and keplerian element data for the satellite.

Feedback or suggestion? Click here.




ElementValue
Catalog43187
NameOBJECT H
Epoch Orbit2489
Epoch Day198.77980136
Epoch Year2018
RAAN106.857
Inclination97.7231
Eccentricity0.0012528
Argument of Perigee53.8787
Mean Anonmoly306.3592
Mean Motion14.9647474
Decay Rate-6.1E-07
L11 43187U 18014H 18198.77980136 -.00000061 00000-0 -26349-6 0 9994
L22 43187 97.7231 106.8570 0012528 53.8787 306.3592 14.96474740 24894

Live tracking and technical data element details for OBJECT H (NORAD 43187). OBJECT H can be tracked NOW for your location showing map with azimuth and elevation plus other details from your city location.

Track the satellite on the map from your city or location and see movement details for azimuth, elevation, latitude, longitude, range, height, and movement on the map or in text.







IsCatalogInMostPopularTable: catalog: 43187, numindb: 60
Update: records affected: 1



GetName: 43187 OBJECT H

Hit Count: updated at: Thu, 19 Jul 2018 21:29:49 GMT